FW4250 Weather Reports


Display with metric or nautical units.
time (UTC)temp
F
wind
direction
speed
MPH
gust
MPH
rain 1hr
in
rain 24hr
in
rain mn
in
humidity
%
barometer
mb
20260904234525 77 171 4.0 12.0 0.00 0.00 0.00 64 986.5
20260904234019 77 232 6.0 12.0 0.00 0.00 0.00 63 986.5
20260904233523 77 201 5.0 10.0 0.00 0.00 0.00 63 986.4
20260904233038 77 200 5.0 9.0 0.00 0.00 0.00 62 986.3
20260904232521 77 212 6.0 10.0 0.00 0.00 0.00 62 986.4
20260904232019 78 182 6.0 10.0 0.00 0.00 0.00 62 986.4
20260904231522 78 192 6.0 10.0 0.00 0.00 0.00 61 986.4
20260904231019 78 198 5.0 9.0 0.00 0.00 0.00 61 986.3
20260904230518 78 176 6.0 11.0 0.00 0.00 0.00 61 986.3
20260904230034 78 144 6.0 10.0 0.00 0.00 0.00 60 986.3
20260904225518 79 200 4.0 10.0 0.00 0.00 0.00 61 986.3
20260904225017 79 194 6.0 11.0 0.00 0.00 0.00 60 986.4
20260904224517 79 194 6.0 11.0 0.00 0.00 0.00 61 986.5
20260904224017 79 169 5.0 11.0 0.00 0.00 0.00 61 986.4
20260904223517 79 207 5.0 15.0 0.00 0.00 0.00 59 986.5
20260904223016 79 180 3.0 15.0 0.00 0.00 0.00 59 986.4
20260904222518 79 136 4.0 13.0 0.00 0.00 0.00 59 986.3
20260904222017 79 158 7.0 13.0 0.00 0.00 0.00 59 986.3
20260904221517 79 190 6.0 10.0 0.00 0.00 0.00 60 986.4
20260904221016 79 202 5.0 9.0 0.00 0.00 0.00 59 986.3
20260904220518 79 148 5.0 10.0 0.00 0.00 0.00 60 986.4
20260904220019 79 216 6.0 11.0 0.00 0.00 0.00 60 986.4
20260904215516 79 180 5.0 11.0 0.00 0.00 0.00 61 986.5
20260904215016 79 209 5.0 11.0 0.00 0.00 0.00 60 986.5
20260904214515 79 172 6.0 14.0 0.00 0.00 0.00 61 986.4
20260904214015 79 173 5.0 14.0 0.00 0.00 0.00 61 986.4
20260904213518 79 178 6.0 10.0 0.00 0.00 0.00 61 986.5
20260904213018 79 199 5.0 12.0 0.00 0.00 0.00 62 986.6
20260904212517 79 225 6.0 12.0 0.00 0.00 0.00 62 986.6
20260904212015 79 166 5.0 10.0 0.00 0.00 0.00 62 986.6
20260904211517 79 178 5.0 9.0 0.00 0.00 0.00 61 986.6
20260904211016 80 173 6.0 11.0 0.00 0.00 0.00 60 986.5
20260904210514 80 170 6.0 11.0 0.00 0.00 0.00 60 986.5
20260904210016 79 219 5.0 10.0 0.00 0.00 0.00 61 986.5
20260904205517 79 191 5.0 10.0 0.00 0.00 0.00 61 986.5
20260904205013 79 162 7.0 10.0 0.00 0.00 0.00 61 986.6
20260904204520 79 173 7.0 12.0 0.00 0.00 0.00 61 986.7
20260904204013 79 188 6.0 12.0 0.00 0.00 0.00 61 986.6
20260904203514 79 165 6.0 12.0 0.00 0.00 0.00 61 986.6
20260904203016 80 131 5.0 11.0 0.00 0.00 0.00 61 986.7
20260904202512 79 207 4.0 12.0 0.00 0.00 0.00 62 986.6
20260904202012 79 189 6.0 11.0 0.00 0.00 0.00 62 986.7
20260904201511 79 216 4.0 11.0 0.00 0.00 0.00 62 986.7
20260904201013 79 157 7.0 11.0 0.00 0.00 0.00 61 986.7
20260904200514 79 162 5.0 14.0 0.00 0.00 0.00 62 986.7
20260904200021 79 113 6.0 14.0 0.00 0.00 0.00 61 986.6
20260904195517 79 165 7.0 14.0 0.00 0.00 0.00 60 986.7
20260904195010 79 149 6.0 12.0 0.00 0.00 0.00 60 986.8
20260904194514 79 93 5.0 10.0 0.00 0.00 0.00 60 986.8
20260904194008 79 186 5.0 10.0 0.00 0.00 0.00 60 986.8
20260904193510 79 150 4.0 9.0 0.00 0.00 0.00 61 986.8
20260904193009 79 204 2.0 10.0 0.00 0.00 0.00 61 986.8
20260904192509 78 148 4.0 10.0 0.00 0.00 0.00 60 986.9
20260904192007 78 184 5.0 11.0 0.00 0.00 0.00 60 986.9
20260904191505 78 196 4.0 12.0 0.00 0.00 0.00 59 987.0
20260904191008 78 204 6.0 12.0 0.00 0.00 0.00 59 987.1
20260904190504 78 189 4.0 9.0 0.00 0.00 0.00 59 987.1
20260904190003 78 184 4.0 10.0 0.00 0.00 0.00 59 987.0
20260904185502 78 144 4.0 12.0 0.00 0.00 0.00 59 987.0
20260904185002 78 165 7.0 14.0 0.00 0.00 0.00 59 987.1
20260904184602 78 157 7.0 14.0 0.00 0.00 0.00 58 987.1
20260904184059 77 209 4.0 9.0 0.00 0.00 0.00 58 987.2
20260904183558 77 212 3.0 9.0 0.00 0.00 0.00 59 987.3
20260904183102 77 183 5.0 9.0 0.00 0.00 0.00 59 987.1
20260904182555 77 205 2.0 7.0 0.00 0.00 0.00 60 987.3
20260904182054 77 201 4.0 9.0 0.00 0.00 0.00 59 987.2
20260904181553 77 179 4.0 9.0 0.00 0.00 0.00 59 987.3
20260904181055 77 159 3.0 7.0 0.00 0.00 0.00 59 987.4
20260904180551 76 167 2.0 7.0 0.00 0.00 0.00 61 987.5
20260904180059 75 164 4.0 7.0 0.00 0.00 0.00 62 987.6
20260904175548 75 197 3.0 6.0 0.00 0.01 0.00 64 987.7
20260904175048 75 201 2.0 8.0 0.00 0.01 0.00 64 987.7
20260904174548 75 198 3.0 8.0 0.00 0.01 0.00 63 987.7
20260904174045 75 175 3.0 7.0 0.00 0.01 0.00 65 987.6
20260904173543 74 178 1.0 6.0 0.00 0.01 0.00 65 987.6
20260904173103 74 159 2.0 6.0 0.00 0.01 0.00 66 987.7
20260904172543 73 155 0.0 7.0 0.00 0.01 0.00 67 987.7
20260904172041 73 184 1.0 6.0 0.00 0.01 0.00 67 987.6
20260904171548 73 184 2.0 4.0 0.00 0.01 0.00 67 987.6
20260904171036 72 184 1.0 5.0 0.00 0.01 0.00 68 987.6
20260904170541 72 184 2.0 5.0 0.00 0.01 0.00 68 987.6
20260904170034 72 186 1.0 6.0 0.00 0.01 0.00 70 987.5
20260904165533 72 186 2.0 6.0 0.00 0.01 0.00 68 987.5
20260904165032 72 179 3.0 7.0 0.00 0.01 0.00 69 987.5
20260904164530 71 174 3.0 7.0 0.00 0.01 0.00 70 987.6
20260904164028 71 182 1.0 5.0 0.00 0.01 0.00 71 987.6
20260904163534 70 182 1.0 5.0 0.00 0.01 0.00 73 987.4
20260904163028 69 182 3.0 5.0 0.00 0.01 0.00 74 987.4
20260904162526 69 190 1.0 5.0 0.00 0.01 0.00 74 987.4
20260904162024 69 188 3.0 5.0 0.00 0.01 0.00 75 987.3
20260904161521 68 182 2.0 4.0 0.00 0.01 0.00 75 987.3
20260904161021 68 182 2.0 4.0 0.00 0.01 0.00 78 987.3
20260904160526 67 182 0.0 4.0 0.00 0.01 0.00 78 987.4
20260904160018 67 182 2.0 4.0 0.00 0.01 0.00 78 987.3
20260904155516 67 182 1.0 4.0 0.00 0.03 0.00 80 987.3
20260904155019 66 182 1.0 4.0 0.00 0.03 0.00 80 987.3
20260904154514 66 182 2.0 4.0 0.00 0.03 0.00 82 987.2
20260904154014 65 182 2.0 4.0 0.00 0.03 0.00 84 987.2
20260904153510 64 182 2.0 4.0 0.00 0.03 0.00 85 987.2
20260904153009 63 239 0.0 0.0 0.00 0.03 0.00 87 987.2
20260904152507 63 239 0.0 0.0 0.00 0.03 0.00 88 987.2
20260904152006 62 239 0.0 0.0 0.00 0.03 0.00 89 987.1
20260904151507 62 239 0.0 0.0 0.00 0.03 0.00 89 987.0
20260904151009 61 239 0.0 0.0 0.00 0.03 0.00 91 987.0
20260904150504 61 239 0.0 0.0 0.00 0.03 0.00 92 987.0
20260904150005 61 239 0.0 0.0 0.00 0.03 0.00 93 987.1
20260904145504 60 239 0.0 0.0 0.00 0.03 0.00 94 987.0
20260904145002 59 239 0.0 0.0 0.00 0.03 0.00 94 987.1
20260904144620 59 239 0.0 0.0 0.00 0.03 0.00 94 987.0
20260904144059 58 239 0.0 0.0 0.00 0.03 0.00 94 987.1
20260904143559 58 239 0.0 0.0 0.00 0.03 0.00 93 987.0
20260904143058 58 239 0.0 0.0 0.00 0.03 0.00 94 987.1
20260904142602 58 239 0.0 0.0 0.00 0.03 0.00 94 986.9
20260904142055 57 239 0.0 0.0 0.00 0.03 0.00 93 986.9
20260904141602 57 239 0.0 0.0 0.00 0.03 0.00 93 986.7
20260904141055 57 239 0.0 0.0 0.00 0.03 0.00 94 986.8
20260904140554 57 239 0.0 0.0 0.00 0.03 0.00 94 986.7
20260904140054 57 239 0.0 0.0 0.00 0.03 0.00 93 986.7
20260904135555 57 239 0.0 0.0 0.00 0.03 0.00 93 986.7
20260904135053 57 239 0.0 0.0 0.00 0.03 0.00 93 986.6
20260904134552 57 239 0.0 0.0 0.00 0.03 0.00 93 986.6
20260904134050 57 239 0.0 0.0 0.00 0.03 0.00 93 986.6
20260904133551 57 239 0.0 0.0 0.00 0.03 0.00 93 986.5
20260904133050 57 239 0.0 0.0 0.00 0.03 0.00 93 986.4
20260904132551 57 239 0.0 0.0 0.00 0.03 0.00 92 986.4
20260904132049 57 239 0.0 0.0 0.00 0.03 0.00 92 986.4
20260904131548 57 239 0.0 0.0 0.00 0.03 0.00 92 986.3
20260904131047 57 239 0.0 0.0 0.00 0.03 0.00 92 986.2
20260904130550 58 239 0.0 0.0 0.00 0.03 0.00 92 986.2
20260904130047 58 239 0.0 0.0 0.00 0.03 0.00 92 986.2
20260904125546 58 239 0.0 0.0 0.00 0.03 0.00 92 986.2
20260904125046 58 239 0.0 0.0 0.00 0.03 0.00 92 986.3
20260904124557 58 239 0.0 0.0 0.00 0.03 0.00 93 986.1
20260904124048 58 239 0.0 0.0 0.00 0.03 0.00 93 986.2
20260904123547 58 239 0.0 0.0 0.00 0.03 0.00 93 986.2
20260904123045 58 239 0.0 0.0 0.00 0.03 0.00 93 986.2
20260904122545 58 239 0.0 0.0 0.00 0.03 0.00 92 986.3
20260904122045 58 239 0.0 0.0 0.00 0.03 0.00 92 986.2
20260904121545 58 239 0.0 0.0 0.00 0.03 0.00 92 986.1
20260904121044 58 239 0.0 0.0 0.00 0.03 0.00 92 986.0
20260904120552 58 239 0.0 0.0 0.00 0.03 0.00 92 986.0
20260904120048 58 239 0.0 0.0 0.00 0.03 0.00 92 986.0
20260904115544 58 239 0.0 0.0 0.00 0.03 0.00 92 986.0
20260904115045 58 239 0.0 0.0 0.00 0.03 0.00 92 986.0
20260904114546 58 239 0.0 0.0 0.00 0.03 0.00 91 986.1
20260904114043 58 239 0.0 0.0 0.00 0.03 0.00 91 986.0
20260904113542 58 239 0.0 0.0 0.00 0.03 0.00 91 986.0
20260904112541 58 239 0.0 0.0 0.00 0.03 0.00 91 986.0
20260904112042 59 239 0.0 0.0 0.00 0.03 0.00 91 986.1
20260904111540 59 239 0.0 0.0 0.00 0.03 0.00 91 986.0
20260904111040 59 239 0.0 0.0 0.00 0.03 0.00 91 985.9
20260904110540 59 239 0.0 0.0 0.00 0.03 0.00 91 985.9
20260904110040 59 239 0.0 0.0 0.00 0.03 0.00 90 985.9
20260904105539 59 239 0.0 0.0 0.00 0.03 0.00 91 985.9
20260904105038 59 239 0.0 0.0 0.00 0.03 0.00 91 986.0
20260904104539 59 239 0.0 0.0 0.00 0.03 0.00 91 986.0
20260904104038 59 239 0.0 0.0 0.00 0.03 0.00 91 985.9
20260904103541 59 239 0.0 0.0 0.00 0.03 0.00 91 986.0
20260904103042 59 239 0.0 0.0 0.00 0.03 0.00 91 985.9
20260904102539 59 239 0.0 0.0 0.00 0.03 0.00 91 985.9
20260904102038 59 239 0.0 0.0 0.00 0.03 0.00 91 986.0
20260904101538 59 239 0.0 0.0 0.00 0.03 0.00 91 986.0
20260904101038 59 239 0.0 0.0 0.00 0.03 0.00 91 985.9
20260904100540 59 239 0.0 0.0 0.00 0.03 0.00 91 985.9
20260904100038 59 239 0.0 0.0 0.00 0.03 0.00 91 986.0
20260904095538 59 239 0.0 0.0 0.00 0.03 0.00 91 985.9
20260904095039 59 239 0.0 0.0 0.00 0.03 0.00 90 985.9
20260904094545 59 239 0.0 0.0 0.00 0.03 0.00 90 985.9
20260904094036 59 239 0.0 0.0 0.00 0.03 0.00 90 985.8
20260904093540 59 239 0.0 0.0 0.00 0.03 0.00 90 985.8
20260904093036 60 239 0.0 0.0 0.00 0.03 0.00 90 985.8
20260904092535 60 239 0.0 0.0 0.00 0.03 0.00 90 985.9
20260904092034 60 239 0.0 0.0 0.00 0.03 0.00 89 986.0
20260904091535 60 239 0.0 0.0 0.00 0.03 0.00 89 985.9
20260904091034 60 239 0.0 0.0 0.00 0.03 0.00 88 985.9
20260904090534 60 239 0.0 0.0 0.00 0.03 0.00 88 986.0
20260904090032 60 239 0.0 0.0 0.00 0.03 0.00 88 986.1
20260904085531 60 239 0.0 0.0 0.00 0.03 0.00 88 986.1
20260904085033 60 239 0.0 0.0 0.00 0.03 0.00 88 986.2
20260904084530 60 239 0.0 0.0 0.00 0.03 0.00 88 986.2
20260904084029 61 239 0.0 0.0 0.00 0.03 0.00 88 986.3
20260904083526 61 239 0.0 0.0 0.00 0.03 0.00 88 986.4
20260904083026 61 239 0.0 0.0 0.00 0.03 0.00 88 986.4
20260904082525 61 239 0.0 0.0 0.00 0.03 0.00 88 986.5
20260904082025 61 239 0.0 0.0 0.00 0.03 0.00 89 986.5
20260904081525 61 239 0.0 0.0 0.00 0.03 0.00 88 986.4
20260904081024 61 239 0.0 0.0 0.00 0.03 0.00 87 986.5
20260904080523 61 239 0.0 0.0 0.00 0.03 0.00 87 986.4
20260904080023 61 239 0.0 0.0 0.00 0.03 0.00 86 986.4
20260904075523 61 239 0.0 0.0 0.00 0.03 0.00 87 986.6
20260904075023 61 239 0.0 0.0 0.00 0.03 0.00 87 986.5
20260904074526 61 239 0.0 0.0 0.00 0.03 0.00 87 986.5
20260904074021 61 239 0.0 0.0 0.00 0.03 0.00 87 986.4
20260904073520 61 239 0.0 0.0 0.00 0.03 0.00 87 986.3
20260904073020 61 239 0.0 0.0 0.00 0.03 0.00 86 986.3
20260904072520 62 239 0.0 0.0 0.00 0.03 0.00 85 986.2
20260904072018 62 239 0.0 0.0 0.00 0.03 0.00 86 986.1
20260904071522 62 239 0.0 1.0 0.00 0.03 0.00 86 986.0
20260904071020 62 239 0.0 1.0 0.00 0.03 0.00 86 986.1
20260904070515 62 239 0.0 0.0 0.00 0.03 0.00 86 985.9
20260904070018 62 239 0.0 0.0 0.00 0.03 0.00 86 986.0
20260904065515 62 239 0.0 0.0 0.00 0.03 0.03 86 986.0
20260904065015 62 239 0.0 0.0 0.00 0.03 0.03 86 986.0
20260904064515 62 239 0.0 0.0 0.00 0.03 0.03 86 985.9
20260904064017 62 239 0.0 0.0 0.00 0.03 0.03 86 985.9
20260904063515 62 239 0.0 0.0 0.00 0.03 0.03 86 985.9
20260904063015 62 239 0.0 0.0 0.00 0.03 0.03 86 985.9
20260904062515 62 239 0.0 0.0 0.00 0.03 0.03 86 985.8
20260904062014 62 239 0.0 0.0 0.00 0.03 0.03 85 985.9
20260904061514 62 239 0.0 0.0 0.00 0.03 0.03 85 985.9
20260904061017 62 239 0.0 0.0 0.00 0.03 0.03 85 985.8
20260904060514 63 239 0.0 0.0 0.00 0.03 0.03 85 985.7
20260904060014 63 239 0.0 0.0 0.00 0.03 0.03 85 985.7
20260904055513 63 239 0.0 0.0 0.00 0.03 0.03 84 985.8
20260904055013 63 239 0.0 0.0 0.00 0.03 0.03 85 985.7
20260904054518 63 239 0.0 0.0 0.00 0.03 0.03 84 985.7
20260904054012 63 239 0.0 2.0 0.00 0.03 0.03 85 985.7
20260904053513 63 239 0.0 2.0 0.00 0.03 0.03 84 985.7
20260904053014 63 239 1.0 2.0 0.00 0.03 0.03 84 985.9
20260904052513 63 239 1.0 2.0 0.00 0.03 0.03 84 986.1
20260904052013 63 239 1.0 2.0 0.00 0.03 0.03 83 986.1
20260904051518 64 239 0.0 3.0 0.00 0.03 0.03 83 986.1
20260904051012 64 239 1.0 3.0 0.00 0.03 0.03 83 986.1
20260904050512 64 239 1.0 3.0 0.00 0.03 0.03 83 986.1
20260904050012 64 239 0.0 3.0 0.00 0.03 0.03 83 986.1
20260904045512 64 239 0.0 2.0 0.00 0.03 0.03 84 986.1
20260904045012 64 190 0.0 0.0 0.00 0.03 0.03 84 986.2
20260904044516 64 190 0.0 0.0 0.00 0.03 0.03 83 986.2
20260904044011 65 190 0.0 0.0 0.00 0.03 0.03 83 986.0
20260904043511 65 190 0.0 0.0 0.00 0.03 0.03 84 986.1
20260904043012 65 190 0.0 0.0 0.00 0.03 0.03 84 985.9
20260904042513 65 190 0.0 0.0 0.00 0.03 0.03 83 985.9
20260904042012 65 190 0.0 0.0 0.00 0.03 0.03 83 986.0
20260904041510 65 190 0.0 0.0 0.00 0.03 0.03 83 985.9
20260904041012 65 190 0.0 0.0 0.00 0.03 0.03 82 986.0
20260904040513 65 190 0.0 0.0 0.00 0.03 0.03 82 986.0
20260904040014 65 190 0.0 0.0 0.00 0.03 0.03 82 985.9
20260904035513 66 190 0.0 0.0 0.00 0.03 0.03 82 985.8
20260904035010 66 190 0.0 0.0 0.00 0.03 0.03 81 985.8
20260904034510 66 190 0.0 0.0 0.00 0.03 0.03 81 985.8
20260904034012 66 190 0.0 0.0 0.00 0.03 0.03 81 985.8
20260904033511 66 190 0.0 0.0 0.00 0.03 0.03 81 985.6
20260904033009 66 190 0.0 0.0 0.00 0.03 0.03 81 985.6
20260904032508 67 190 0.0 0.0 0.00 0.03 0.03 80 985.6
20260904032010 67 190 0.0 0.0 0.00 0.03 0.03 80 985.6
20260904031508 67 190 0.0 0.0 0.00 0.03 0.03 80 985.4
20260904031008 67 190 0.0 0.0 0.00 0.03 0.03 80 985.3
20260904030508 68 190 0.0 0.0 0.00 0.03 0.03 79 985.3
20260904030008 68 190 0.0 0.0 0.00 0.03 0.03 79 985.2
20260904025508 68 190 0.0 1.0 0.00 0.03 0.03 78 985.2
20260904025008 68 190 0.0 2.0 0.00 0.03 0.03 78 985.2
20260904024507 68 190 0.0 2.0 0.00 0.03 0.03 78 985.2
20260904024006 68 190 0.0 3.0 0.00 0.03 0.03 77 985.2
20260904023506 69 190 1.0 3.0 0.00 0.03 0.03 77 985.2
20260904023007 69 190 1.0 3.0 0.00 0.03 0.03 77 985.2
20260904022507 69 190 1.0 3.0 0.00 0.03 0.03 76 985.2
20260904022007 70 190 1.0 4.0 0.00 0.03 0.03 76 985.2
20260904021506 70 190 1.0 5.0 0.00 0.03 0.03 75 985.1
20260904021007 70 190 2.0 5.0 0.00 0.03 0.03 74 985.1
20260904020506 71 192 2.0 4.0 0.00 0.03 0.03 73 985.1
20260904020006 71 193 1.0 4.0 0.00 0.03 0.03 72 985.1
20260904015505 71 193 2.0 4.0 0.00 0.03 0.03 72 985.1
20260904015007 71 193 2.0 4.0 0.00 0.03 0.03 71 985.1
20260904014505 72 193 2.0 4.0 0.00 0.03 0.03 70 985.1
20260904014004 72 192 2.0 5.0 0.00 0.03 0.03 70 985.2
20260904013503 72 193 2.0 6.0 0.00 0.03 0.03 70 985.2
20260904013006 72 188 2.0 6.0 0.00 0.03 0.03 70 985.3
20260904012506 72 190 3.0 6.0 0.00 0.03 0.03 70 985.3
20260904012002 72 190 3.0 6.0 0.00 0.03 0.03 70 985.4
20260904011504 73 183 3.0 6.0 0.00 0.03 0.03 70 985.5
20260904011003 73 179 3.0 7.0 0.00 0.03 0.03 70 985.5
20260904010502 73 183 3.0 8.0 0.00 0.03 0.03 69 985.5
20260904010002 73 163 5.0 8.0 0.00 0.03 0.03 69 985.6
20260904005600 73 197 3.0 6.0 0.00 0.03 0.03 69 985.5
20260904005059 73 184 4.0 8.0 0.00 0.03 0.03 68 985.5
20260904004603 74 215 5.0 8.0 0.00 0.03 0.03 68 985.5
20260904004059 74 190 3.0 10.0 0.00 0.03 0.03 68 985.6
20260904003558 74 182 4.0 10.0 0.00 0.03 0.03 67 985.5
20260904003102 74 165 5.0 9.0 0.00 0.03 0.03 67 985.5
20260904002559 74 190 4.0 9.0 0.00 0.03 0.03 66 985.5
20260904002100 75 179 6.0 9.0 0.00 0.03 0.03 66 985.6
20260904001557 75 173 5.0 9.0 0.00 0.03 0.03 65 985.5
20260904001056 75 167 4.0 8.0 0.00 0.03 0.03 65 985.5
20260904000559 75 158 6.0 10.0 0.00 0.03 0.03 63 985.6
20260904000138 76 153 6.0 9.0 0.00 0.03 0.03 63 985.5
20260903235555 76 175 5.0 10.0 0.00 0.03 0.03 62 985.5
20260903235056 77 180 5.0 10.0 0.00 0.03 0.03 62 985.6